Tracking 22879 objects as of 21-Apr-2021
HD Live streaming from Space Station
objects crossing your sky now

STARLINK-2038

Track STARLINK-2038 now!
10-day predictions
STARLINK-2038 is classified as:


NORAD ID: 47654
Int'l Code: 2021-012AL
Perigee: 553.5 km
Apogee: 555.4 km
Inclination: 53.0 °
Period: 95.6 minutes
Semi major axis: 6925 km
RCS: Unknown
Launch date: February 16, 2021
Source: United States (US)
Launch site: AIR FORCE EASTERN TEST RANGE (AFETR)
aabbcc
Your satellite tracking list
Your tracking list is empty




NASA's NSSDC Master Catalog

Two Line Element Set (TLE):
1 47654U 21012AL  21110.83335648  .00021499  00000-0  14594-2 0  9997
2 47654  53.0429 159.7141 0001368  68.2151  11.9339 15.06358661 10592
Source of the keplerian elements: AFSPC